| time (UTC) | temp F | wind direction | speed MPH | gust MPH | rain 1hr in | rain 24hr in | rain mn in | humidity % | barometer mb |
| 20260502140114 | 77 | 36 | 4.0 | 11.0 | 0.00 | 0.00 | 0.00 | 34 | 1015.5 |
| 20260502130113 | 76 | 48 | 0.0 | 0.0 | 0.00 | 0.00 | 0.00 | 36 | 1016.3 |
| 20260502123113 | 76 | 28 | 6.0 | 13.0 | 0.00 | 0.00 | 0.00 | 39 | 1016.7 |
| 20260502122113 | 76 | 36 | 3.0 | 10.0 | 0.00 | 0.00 | 0.00 | 42 | 1016.8 |
| 20260502121113 | 75 | 48 | 4.0 | 11.0 | 0.00 | 0.00 | 0.00 | 43 | 1017.0 |
| 20260502120113 | 75 | 25 | 4.0 | 11.0 | 0.00 | 0.00 | 0.00 | 43 | 1017.3 |
| 20260502115113 | 74 | 24 | 4.0 | 10.0 | 0.00 | 0.00 | 0.00 | 44 | 1017.4 |
| 20260502114113 | 74 | 36 | 3.0 | 7.0 | 0.00 | 0.00 | 0.00 | 46 | 1017.6 |
| 20260502113113 | 73 | 331 | 2.0 | 6.0 | 0.00 | 0.00 | 0.00 | 44 | 1017.7 |
| 20260502112113 | 73 | 331 | 2.0 | 6.0 | 0.00 | 0.00 | 0.00 | 42 | 1017.9 |
| 20260502111113 | 72 | 325 | 4.0 | 8.0 | 0.00 | 0.00 | 0.00 | 43 | 1018.0 |
| 20260502110113 | 72 | 355 | 2.0 | 6.0 | 0.00 | 0.00 | 0.00 | 44 | 1018.2 |
| 20260502105113 | 72 | 331 | 4.0 | 8.0 | 0.00 | 0.00 | 0.00 | 43 | 1018.3 |
| 20260502104113 | 72 | 28 | 3.0 | 8.0 | 0.00 | 0.00 | 0.00 | 44 | 1018.4 |
| 20260502103112 | 71 | 338 | 2.0 | 6.0 | 0.00 | 0.00 | 0.00 | 45 | 1018.6 |
| 20260502102113 | 71 | 327 | 4.0 | 10.0 | 0.00 | 0.00 | 0.00 | 46 | 1018.7 |
| 20260502101112 | 71 | 9 | 2.0 | 8.0 | 0.00 | 0.00 | 0.00 | 50 | 1018.9 |
| 20260502100112 | 71 | 5 | 0.0 | 7.0 | 0.00 | 0.00 | 0.00 | 49 | 1019.0 |
| 20260502091112 | 69 | 120 | 3.0 | 8.0 | 0.00 | 0.00 | 0.00 | 51 | 1019.5 |
| 20260502090112 | 69 | 148 | 3.0 | 7.0 | 0.00 | 0.00 | 0.00 | 51 | 1019.6 |
| 20260502071111 | 55 | 30 | 1.0 | 1.0 | 0.00 | 0.00 | 0.00 | 77 | 1020.4 |
| 20260502070111 | 53 | 30 | 1.0 | 1.0 | 0.00 | 0.00 | 0.00 | 79 | 1020.5 |
| 20260502065111 | 52 | 30 | 1.0 | 1.0 | 0.00 | 0.00 | 0.00 | 79 | 1020.7 |
| 20260502064111 | 51 | 30 | 1.0 | 1.0 | 0.00 | 0.00 | 0.00 | 79 | 1020.7 |
| 20260502063111 | 51 | 30 | 1.0 | 1.0 | 0.00 | 0.00 | 0.00 | 79 | 1020.7 |
| 20260502062111 | 50 | 30 | 1.0 | 1.0 | 0.00 | 0.00 | 0.00 | 79 | 1020.8 |
| 20260502061111 | 50 | 30 | 1.0 | 1.0 | 0.00 | 0.00 | 0.00 | 79 | 1020.8 |
| 20260502060111 | 49 | 30 | 1.0 | 1.0 | 0.00 | 0.00 | 0.00 | 78 | 1020.8 |
| 20260502055111 | 49 | 30 | 1.0 | 1.0 | 0.00 | 0.00 | 0.00 | 78 | 1020.8 |
| 20260502054111 | 49 | 30 | 1.0 | 1.0 | 0.00 | 0.00 | 0.00 | 77 | 1020.8 |
| 20260502053110 | 49 | 30 | 1.0 | 1.0 | 0.00 | 0.00 | 0.00 | 77 | 1020.8 |
| 20260502052110 | 49 | 30 | 1.0 | 1.0 | 0.00 | 0.00 | 0.00 | 77 | 1020.8 |
| 20260502051110 | 49 | 30 | 1.0 | 1.0 | 0.00 | 0.00 | 0.00 | 77 | 1020.7 |
| 20260502050111 | 49 | 30 | 1.0 | 1.0 | 0.00 | 0.00 | 0.00 | 76 | 1020.7 |
| 20260502045110 | 49 | 30 | 1.0 | 1.0 | 0.00 | 0.00 | 0.00 | 76 | 1020.6 |
| 20260502044110 | 49 | 30 | 1.0 | 1.0 | 0.00 | 0.00 | 0.00 | 75 | 1020.6 |
| 20260502043110 | 49 | 30 | 1.0 | 1.0 | 0.00 | 0.00 | 0.00 | 75 | 1020.6 |
| 20260502042110 | 49 | 30 | 1.0 | 1.0 | 0.00 | 0.00 | 0.00 | 75 | 1020.6 |
| 20260502041110 | 49 | 30 | 1.0 | 1.0 | 0.00 | 0.00 | 0.00 | 74 | 1020.6 |
| 20260502040110 | 50 | 30 | 1.0 | 1.0 | 0.00 | 0.00 | 0.00 | 74 | 1020.6 |
| 20260502035110 | 50 | 30 | 1.0 | 1.0 | 0.00 | 0.00 | 0.00 | 74 | 1020.5 |
| 20260502034110 | 50 | 30 | 1.0 | 1.0 | 0.00 | 0.00 | 0.00 | 73 | 1020.5 |
| 20260502033110 | 50 | 30 | 1.0 | 1.0 | 0.00 | 0.00 | 0.00 | 73 | 1020.5 |
| 20260502032110 | 50 | 30 | 1.0 | 1.0 | 0.00 | 0.00 | 0.00 | 73 | 1020.4 |
| 20260502031109 | 50 | 30 | 1.0 | 1.0 | 0.00 | 0.00 | 0.00 | 72 | 1020.5 |
| 20260502030110 | 50 | 30 | 1.0 | 1.0 | 0.00 | 0.00 | 0.00 | 72 | 1020.6 |
| 20260502025109 | 51 | 30 | 1.0 | 1.0 | 0.00 | 0.00 | 0.00 | 71 | 1020.7 |
| 20260502024109 | 51 | 30 | 1.0 | 1.0 | 0.00 | 0.00 | 0.00 | 71 | 1020.7 |
| 20260502023109 | 51 | 30 | 1.0 | 1.0 | 0.00 | 0.00 | 0.00 | 70 | 1020.6 |
| 20260502022114 | 51 | 30 | 1.0 | 1.0 | 0.00 | 0.00 | 0.00 | 70 | 1020.6 |
| 20260502021114 | 51 | 30 | 1.0 | 1.0 | 0.00 | 0.00 | 0.00 | 70 | 1020.5 |
| 20260502020114 | 51 | 30 | 1.0 | 1.0 | 0.00 | 0.00 | 0.00 | 70 | 1020.6 |
| 20260502015115 | 52 | 30 | 1.0 | 1.0 | 0.00 | 0.00 | 0.00 | 69 | 1020.6 |
| 20260502014114 | 52 | 30 | 1.0 | 1.0 | 0.00 | 0.00 | 0.00 | 69 | 1020.6 |
| 20260502013114 | 52 | 30 | 1.0 | 1.0 | 0.00 | 0.00 | 0.00 | 68 | 1020.6 |
| 20260502012114 | 52 | 30 | 1.0 | 1.0 | 0.00 | 0.00 | 0.00 | 68 | 1020.8 |
| 20260502011114 | 53 | 30 | 1.0 | 1.0 | 0.00 | 0.00 | 0.00 | 68 | 1020.7 |
| 20260502010114 | 53 | 30 | 1.0 | 1.0 | 0.00 | 0.00 | 0.00 | 67 | 1020.7 |
| 20260502005114 | 53 | 30 | 1.0 | 1.0 | 0.00 | 0.00 | 0.00 | 67 | 1020.7 |
| 20260502004114 | 53 | 30 | 1.0 | 1.0 | 0.00 | 0.00 | 0.00 | 66 | 1020.8 |
| 20260502003114 | 53 | 30 | 1.0 | 1.0 | 0.00 | 0.00 | 0.00 | 65 | 1020.9 |
| 20260502002114 | 54 | 30 | 1.0 | 1.0 | 0.00 | 0.00 | 0.00 | 65 | 1020.9 |
| 20260502001113 | 54 | 30 | 1.0 | 1.0 | 0.00 | 0.00 | 0.00 | 65 | 1020.9 |
| 20260502000113 | 54 | 30 | 1.0 | 1.0 | 0.00 | 0.00 | 0.00 | 64 | 1020.9 |
| 20260501235114 | 54 | 30 | 1.0 | 1.0 | 0.00 | 0.00 | 0.00 | 64 | 1021.0 |
| 20260501234113 | 55 | 30 | 1.0 | 1.0 | 0.00 | 0.00 | 0.00 | 63 | 1020.9 |
| 20260501233113 | 55 | 30 | 1.0 | 1.0 | 0.00 | 0.00 | 0.00 | 62 | 1021.1 |
| 20260501232113 | 55 | 30 | 1.0 | 1.0 | 0.00 | 0.00 | 0.00 | 62 | 1021.0 |
| 20260501231113 | 55 | 30 | 1.0 | 1.0 | 0.00 | 0.00 | 0.00 | 61 | 1021.0 |
| 20260501230113 | 56 | 30 | 1.0 | 1.0 | 0.00 | 0.00 | 0.00 | 60 | 1021.1 |
| 20260501225114 | 56 | 30 | 1.0 | 1.0 | 0.00 | 0.00 | 0.00 | 59 | 1021.0 |
| 20260501224114 | 57 | 30 | 1.0 | 1.0 | 0.00 | 0.00 | 0.00 | 57 | 1021.0 |
| 20260501223113 | 58 | 30 | 1.0 | 1.0 | 0.00 | 0.00 | 0.00 | 57 | 1021.1 |
| 20260501222113 | 58 | 30 | 1.0 | 1.0 | 0.00 | 0.00 | 0.00 | 56 | 1021.1 |
| 20260501221113 | 59 | 30 | 1.0 | 1.0 | 0.00 | 0.00 | 0.00 | 55 | 1021.1 |
| 20260501220113 | 59 | 30 | 1.0 | 1.0 | 0.00 | 0.00 | 0.00 | 55 | 1021.0 |
| 20260501215113 | 59 | 30 | 1.0 | 1.0 | 0.00 | 0.00 | 0.00 | 54 | 1021.0 |
| 20260501214113 | 60 | 30 | 1.0 | 1.0 | 0.00 | 0.00 | 0.00 | 54 | 1021.0 |
| 20260501213113 | 60 | 30 | 1.0 | 1.0 | 0.00 | 0.00 | 0.00 | 53 | 1020.9 |
| 20260501212112 | 60 | 30 | 1.0 | 1.0 | 0.00 | 0.00 | 0.00 | 53 | 1021.0 |
| 20260501211112 | 61 | 30 | 1.0 | 1.0 | 0.00 | 0.00 | 0.00 | 52 | 1020.9 |
| 20260501210113 | 61 | 30 | 1.0 | 1.0 | 0.00 | 0.00 | 0.00 | 52 | 1020.7 |
| 20260501205112 | 61 | 30 | 1.0 | 1.0 | 0.00 | 0.00 | 0.00 | 51 | 1020.8 |
| 20260501204112 | 61 | 30 | 1.0 | 1.0 | 0.00 | 0.00 | 0.00 | 51 | 1020.8 |
| 20260501203112 | 60 | 30 | 1.0 | 1.0 | 0.00 | 0.00 | 0.00 | 52 | 1020.8 |
| 20260501202112 | 60 | 30 | 1.0 | 1.0 | 0.00 | 0.00 | 0.00 | 52 | 1020.7 |
| 20260501201112 | 60 | 30 | 1.0 | 1.0 | 0.00 | 0.00 | 0.00 | 53 | 1020.7 |
| 20260501200112 | 59 | 30 | 1.0 | 1.0 | 0.00 | 0.00 | 0.00 | 55 | 1020.7 |
| 20260501195112 | 59 | 30 | 1.0 | 1.0 | 0.00 | 0.00 | 0.00 | 56 | 1020.5 |
| 20260501194112 | 59 | 30 | 1.0 | 1.0 | 0.00 | 0.00 | 0.00 | 56 | 1020.4 |
| 20260501193112 | 60 | 30 | 1.0 | 1.0 | 0.00 | 0.00 | 0.00 | 55 | 1020.3 |
| 20260501192112 | 61 | 30 | 1.0 | 1.0 | 0.00 | 0.00 | 0.00 | 54 | 1020.2 |
| 20260501191111 | 62 | 30 | 1.0 | 1.0 | 0.00 | 0.00 | 0.00 | 53 | 1020.2 |
| 20260501190112 | 63 | 30 | 1.0 | 1.0 | 0.00 | 0.00 | 0.00 | 51 | 1020.1 |
| 20260501185112 | 64 | 30 | 1.0 | 1.0 | 0.00 | 0.00 | 0.00 | 49 | 1020.0 |
| 20260501184112 | 65 | 30 | 1.0 | 1.0 | 0.00 | 0.00 | 0.00 | 47 | 1019.9 |
| 20260501183111 | 67 | 30 | 1.0 | 1.0 | 0.00 | 0.00 | 0.00 | 45 | 1019.9 |
| 20260501182111 | 68 | 30 | 1.0 | 1.0 | 0.00 | 0.00 | 0.00 | 43 | 1019.8 |
| 20260501181111 | 69 | 30 | 1.0 | 1.0 | 0.00 | 0.00 | 0.00 | 41 | 1019.8 |
| 20260501180111 | 70 | 30 | 1.0 | 1.0 | 0.00 | 0.00 | 0.00 | 38 | 1019.6 |
| 20260501175111 | 71 | 30 | 2.0 | 5.0 | 0.00 | 0.00 | 0.00 | 36 | 1019.6 |
| 20260501174111 | 71 | 30 | 1.0 | 4.0 | 0.00 | 0.00 | 0.00 | 36 | 1019.5 |
| 20260501173111 | 73 | 30 | 1.0 | 4.0 | 0.00 | 0.00 | 0.00 | 35 | 1019.5 |
| 20260501172116 | 74 | 30 | 1.0 | 4.0 | 0.00 | 0.00 | 0.00 | 34 | 1019.5 |
| 20260501171116 | 75 | 29 | 1.0 | 5.0 | 0.00 | 0.00 | 0.00 | 33 | 1019.5 |
| 20260501170115 | 76 | 26 | 2.0 | 6.0 | 0.00 | 0.00 | 0.00 | 31 | 1019.5 |
| 20260501165116 | 76 | 24 | 2.0 | 6.0 | 0.00 | 0.00 | 0.00 | 30 | 1019.6 |
| 20260501164116 | 76 | 39 | 3.0 | 7.0 | 0.00 | 0.00 | 0.00 | 30 | 1019.7 |
| 20260501163115 | 75 | 10 | 2.0 | 6.0 | 0.00 | 0.00 | 0.00 | 30 | 1019.7 |
| 20260501162115 | 75 | 355 | 3.0 | 8.0 | 0.00 | 0.00 | 0.00 | 31 | 1019.8 |
| 20260501161115 | 75 | 24 | 3.0 | 9.0 | 0.00 | 0.00 | 0.00 | 31 | 1019.8 |
| 20260501160115 | 75 | 31 | 3.0 | 7.0 | 0.00 | 0.00 | 0.00 | 31 | 1019.8 |
| 20260501155115 | 74 | 23 | 3.0 | 7.0 | 0.00 | 0.00 | 0.00 | 31 | 1019.9 |
| 20260501154115 | 74 | 36 | 3.0 | 8.0 | 0.00 | 0.00 | 0.00 | 33 | 1019.9 |
| 20260501153115 | 74 | 22 | 4.0 | 9.0 | 0.00 | 0.00 | 0.00 | 32 | 1020.0 |
| 20260501152115 | 74 | 335 | 2.0 | 7.0 | 0.00 | 0.00 | 0.00 | 33 | 1020.1 |
| 20260501151115 | 74 | 332 | 3.0 | 10.0 | 0.00 | 0.00 | 0.00 | 33 | 1020.1 |
| 20260501150115 | 73 | 16 | 4.0 | 8.0 | 0.00 | 0.00 | 0.00 | 35 | 1020.3 |